Location: Klein M�hlingen
(51.9472°N, 11.7453°E)
Time: 13:42:52
(UTC+00:00)

Cosmos 773 Rocket - Visible Passes

Search period start: 06 August 2020 00:00
Search period end: 16 August 2020 00:00
Orbit: 746 x 776 km, 74.1° (Epoch: 06 August)

Date Brightness Start Highest point End Pass type
(mag) Time Alt. Az. Time Alt. Az. Time Alt. Az.
06 Aug 3.9 00:37:58 10° NNW 00:43:06 66° WSW 00:45:13 35° S visible
06 Aug 5.9 02:22:55 10° WNW 02:23:58 11° W 02:25:00 10° WSW visible
06 Aug 6.3 22:17:37 10° N 22:21:12 18° NE 22:24:45 10° E visible
06 Aug 4.0 23:58:49 10° NNW 00:04:00 78° ENE 00:06:12 35° SE visible
07 Aug 5.5 01:41:51 10° NW 01:45:17 18° W 01:46:18 17° WSW visible
07 Aug 6.5 21:39:04 10° N 21:41:34 13° NE 21:44:02 10° ENE visible
07 Aug 4.6 23:19:46 10° NNW 23:24:48 50° ENE 23:27:17 27° ESE visible
08 Aug 4.9 01:02:05 10° NW 01:06:29 29° W 01:07:22 28° WSW visible
08 Aug 5.3 22:40:49 10° NNW 22:45:29 33° NE 22:48:25 19° ESE visible
09 Aug 4.2 00:22:39 10° NW 00:27:35 48° WSW 00:28:30 43° SW visible
09 Aug 5.9 22:01:58 10° N 22:06:02 23° NE 22:09:35 12° E visible
09 Aug 3.8 23:43:24 10° NNW 23:48:35 78° WSW 23:49:40 55° S visible
10 Aug 5.9 01:27:19 10° WNW 01:29:35 13° W 01:29:45 13° W visible
10 Aug 6.3 21:23:15 10° N 21:26:28 16° NE 21:29:42 10° ENE visible
10 Aug 4.1 23:04:18 10° NNW 23:09:27 67° ENE 23:10:53 45° SE visible
11 Aug 5.4 00:47:01 10° NW 00:50:52 21° W 00:50:58 21° W visible
11 Aug 6.4 20:44:51 10° N 20:46:48 12° NNE 20:48:46 10° NE visible
11 Aug 4.8 22:25:17 10° NNW 22:30:12 43° NE 22:32:08 30° ESE visible
12 Aug 4.7 00:07:24 10° NW 00:12:02 35° WSW 00:12:13 34° WSW visible
12 Aug 5.4 21:46:21 10° N 21:50:50 29° NE 21:53:24 19° E visible
12 Aug 4.0 23:28:02 10° NNW 23:33:05 57° WSW 23:33:30 55° SW visible
13 Aug 5.9 21:07:33 10° N 21:11:21 20° NE 21:14:44 12° E visible
13 Aug 3.8 22:48:51 10° NNW 22:54:02 89° NE 22:54:49 65° SSE visible
14 Aug 5.9 00:32:14 10° WNW 00:34:55 15° W 00:34:55 15° W visible
14 Aug 6.2 20:28:54 10° N 20:31:45 15° NE 20:34:36 10° ENE visible
14 Aug 4.3 22:09:46 10° NNW 22:14:52 57° ENE 22:16:10 44° ESE visible
14 Aug 5.3 23:52:16 10° NW 23:56:16 25° W 23:56:16 25° W visible
15 Aug 6.4 19:50:49 10° NNE 19:52:02 11° NNE 19:53:16 10° NE visible
15 Aug 5.0 21:30:47 10° NNW 21:35:34 37° NE 21:37:32 27° E visible
15 Aug 4.6 23:12:45 10° NW 23:17:33 41° WSW 23:17:38 41° WSW visible
